User: anonymous
Location: Brno
(49.2000°N, 16.6330°E)
Time: 01:56:56
(UTC+02:00)
Language:

Cosmos 332 Rocket - Orbit

View from above orbital plane
View from above orbital plane
View from above satellite
View from above satellite

Ground track
Ground track

The orbit data is extracted from the following two-line orbital elements,

1 04370U 70028B   14233.48471126  .00000164  00000-0  41004-4 0  7179
2 04370 074.0383 254.3419 0014564 071.7159 035.8223 14.59142072861608
Epoch (UTC): 21 August 2014 11:37:59
Eccentricity: 0.0014564
inclination: 74.0383°
perigee height: 685 km
apogee height: 706 km
right ascension of ascending node: 254.3419°
argument of perigee: 71.7159°
revolutions per day: 14.59142072
mean anomaly at epoch: 35.8223°
orbit number at epoch: 86160

The dashed part of the orbit path shows where the satellite is in the earth's shadow,  

DLR